Location: Domont
(49.0278°N, 2.3264°E)
Time: 02:38:08
(UTC+00:00)

XW-2A - Pass Details

Date: 03 July 2022
Orbit: 395 x 405 km, 97.2° (Epoch: 17 August)

Event Time Altitude Azimuth Distance (km) Brightness Sun altitude
Exits shadow 20:59:24 - 181° (S) 1,806 ? -8.1°
Reaches altitude 10° 21:00:16 10° 185° (S) 1,437 ? -8.2°
Maximum altitude 21:03:14 47° 260° (W) 540 ? -8.5°
Drops below altitude 10° 21:06:14 10° 336° (NNW) 1,451 ? -8.8°
Sets 21:08:17 0° 343° (NNW) 2,315 ? -9.0°
